Wind_Speed
9 8 10 10 12 14 15 15 12 6 7 11 11 10 9 10 10 9 8 7 7 10 12 13 14 10 8 8 5 3 4 5 6 7 5 6 6 6 6 7 8 7 6 6 7 8 6 5 5 6 6 6 6 5 5 5 5 5 5 4 3 2 2 4 6 6 6 7 8 7 8 11 12 12 11 12 13 12 12 13 11 10 9 9 9 9
10 10 11 13 14 15 16 15 10 6 8 10 10 10 9 10 10 10 8 7 4 7 10 13 13 7 8 7 4 2 5 5 4 4 4 5 6 6 6 7 8 7 6 7 7 7 6 5 5 6 6 6 6 5 4 3 3 3 3 3 2 1 3 4 5 6 7 7 7 6 7 9 10 11 11 11 12 12 12 13 11 10 10 10 10 9
10 10 13 16 14 14 15 13 11 9 9 9 8 9 9 9 9 9 7 6 4 5 7 13 11 6 8 6 6 3 3 2 2 1 0 2 4 6 6 7 7 6 6 7 6 6 6 6 5 6 6 6 5 5 3 2 2 2 2 1 1 1 3 4 5 5 6 6 6 6 6 7 8 9 10 11 10 11 11 12 11 10 11 11 10 10
9 10 14 15 13 14 14 14 14 11 9 9 9 8 8 10 9 8 8 7 4 2 3 12 10 5 7 6 7 5 3 3 3 4 4 2 1 3 5 5 5 6 6 6 6 6 6 6 6 5 6 6 6 5 3 2 0 1 0 1 1 1 3 4 5 4 5 5 5 6 6 6 6 8 10 10 10 10 11 11 11 11 11 11 11 10
9 10 13 15 14 16 15 14 15 11 9 10 10 9 8 13 10 5 9 9 5 1 3 10 9 5 7 7 6 6 4 4 4 4 5 5 3 3 5 5 4 4 4 6 6 5 5 6 6 5 6 6 6 5 4 2 2 2 2 2 2 1 2 4 5 4 5 5 5 5 5 5 6 8 9 9 9 9 10 10 11 12 12 11 11 12
11 9 13 15 15 17 16 14 16 13 9 9 11 11 7 12 12 6 12 11 6 6 8 11 8 6 8 8 7 6 6 6 5 5 5 6 5 5 6 5 4 4 3 4 6 5 5 5 6 6 5 6 5 5 4 3 3 4 4 4 2 2 3 4 5 5 5 5 5 5 5 6 6 8 8 7 7 8 8 10 11 12 13 12 12 13
9 11 14 16 16 18 17 14 17 16 10 8 12 12 6 7 10 8 11 11 7 6 9 11 9 5 9 8 8 7 8 9 7 7 7 7 6 5 6 5 5 6 6 5 6 5 5 5 5 5 5 6 6 6 4 4 4 5 5 4 3 2 4 4 5 5 5 6 6 6 8 9 9 9 8 6 7 8 9 10 10 11 12 12 12 13
9 13 15 17 17 17 15 13 16 17 11 6 12 15 10 7 9 10 10 10 6 4 7 11 10 5 7 9 9 9 9 10 9 8 8 8 8 8 7 6 6 8 7 6 5 5 5 5 5 6 8 8 8 6 5 5 5 5 5 5 4 4 4 4 4 5 6 7 7 8 8 9 10 11 10 9 9 9 9 10 10 10 11 11 12 13
11 15 16 18 17 13 13 13 16 18 12 5 12 15 11 9 9 9 9 8 5 3 6 11 11 7 7 9 9 10 10 10 9 9 10 9 9 9 8 8 9 9 8 7 6 7 8 8 8 8 9 8 7 6 6 5 5 5 5 5 5 5 5 4 4 5 7 8 8 9 9 9 10 10 10 10 10 9 9 10 11 11 11 11 12 13
12 16 17 18 15 12 14 14 16 18 12 6 11 11 8 7 8 7 8 7 5 6 8 12 13 9 6 10 9 10 10 8 9 9 9 9 9 9 8 8 9 9 8 8 8 9 9 8 8 9 9 9 8 7 7 7 7 6 5 5 5 5 6 5 6 6 8 8 8 9 9 10 11 10 10 10 11 10 10 11 11 11 11 11 11 11
10 14 16 15 13 12 13 12 15 18 11 7 10 10 8 7 6 5 6 6 6 8 10 14 17 12 6 9 8 7 6 5 7 9 9 9 9 9 8 8 8 8 7 7 8 9 9 9 9 10 10 10 10 9 9 9 9 8 7 6 6 6 6 6 7 7 7 6 7 8 8 9 9 9 10 11 12 11 11 12 11 10 10 10 10 10
11 12 12 11 12 11 12 10 11 13 10 8 10 10 9 8 6 6 6 6 7 8 9 13 16 13 8 7 7 7 7 6 7 8 9 8 8 8 8 8 8 7 7 7 7 8 9 10 11 12 12 12 11 11 11 11 10 9 8 7 6 6 6 6 7 8 8 8 7 7 7 8 8 9 11 11 12 12 11 12 11 11 12 12 10 9
11 12 12 11 11 11 12 11 9 9 9 10 10 10 10 9 7 8 8 8 8 6 7 12 14 10 3 7 9 9 9 7 8 9 9 9 8 8 8 9 8 8 9 9 9 9 9 11 12 13 13 13 13 13 12 12 11 9 8 8 7 7 7 7 7 8 9 9 9 9 9 9 10 11 12 12 13 13 12 12 12 12 13 13 11 9
9 12 15 14 10 12 14 11 9 10 11 12 11 11 11 9 9 10 9 9 9 5 6 9 12 9 5 8 10 11 10 9 10 10 10 10 10 10 10 10 10 10 10 9 9 9 10 12 13 13 13 13 12 12 12 11 11 9 9 9 8 8 7 7 8 8 8 9 9 9 10 10 11 12 12 14 14 13 13 13 13 12 12 12 11 10
11 11 13 14 10 13 16 12 11 11 11 12 10 10 10 8 9 9 8 11 12 8 7 8 9 7 6 8 9 10 10 10 10 10 10 11 11 11 11 11 11 11 10 9 10 10 11 13 13 13 12 12 11 11 11 11 10 10 10 10 9 9 8 8 9 8 8 9 9 9 10 11 13 13 14 14 14 14 15 15 15 13 12 12 11 11
13 9 13 16 11 15 18 14 12 12 10 9 9 10 10 10 9 6 3 4 6 8 8 6 3 3 5 8 9 9 10 10 11 12 12 12 11 11 11 10 10 9 9 9 10 10 12 14 13 13 12 11 11 11 11 10 10 11 11 10 10 9 9 10 9 9 8 8 9 10 10 11 12 14 15 15 15 16 16 16 15 14 12 11 11 11
11 8 15 16 10 14 19 16 13 12 9 7 9 10 6 6 7 6 3 3 3 7 6 4 4 6 6 7 9 11 12 11 11 12 12 11 12 11 10 9 9 9 9 9 9 10 12 14 14 13 12 11 11 10 10 10 10 10 10 10 10 10 10 10 10 9 9 9 10 10 10 10 12 13 15 17 17 16 15 15 15 14 13 11 11 11
9 7 13 17 13 12 16 16 14 13 9 7 10 11 5 2 4 7 6 4 7 9 5 5 8 10 8 7 10 12 13 13 12 12 12 11 11 11 10 9 9 9 9 9 10 10 12 13 13 12 11 11 10 9 10 10 9 9 9 9 10 10 11 11 11 10 9 9 10 10 10 10 11 13 15 16 15 14 15 15 15 15 13 12 11 11
9 7 10 16 16 12 12 13 14 13 11 8 9 11 8 5 6 8 8 8 10 8 6 8 11 10 9 9 13 15 14 14 13 12 12 11 11 11 10 9 9 9 8 9 9 9 10 11 12 11 10 10 10 9 9 9 9 9 9 9 10 11 12 11 11 11 10 10 10 10 11 10 11 12 14 15 14 14 16 16 15 14 13 12 11 11
8 7 7 12 13 12 11 10 11 12 10 9 9 10 9 7 7 8 7 7 10 8 7 10 10 8 7 9 15 19 16 15 14 12 11 11 11 10 8 8 8 8 8 8 8 7 9 10 11 11 10 10 10 10 10 9 9 10 10 10 11 11 12 12 11 11 10 10 10 11 11 10 10 11 13 13 12 13 15 15 14 13 12 11 10 9
7 7 5 9 10 10 10 10 12 13 12 9 10 12 10 7 5 8 7 5 7 9 8 9 9 6 4 6 14 18 16 15 14 13 12 11 11 9 8 8 7 8 8 8 7 8 9 10 10 10 10 10 10 10 10 10 10 10 11 11 11 12 12 13 12 11 11 11 10 11 12 11 11 11 11 11 10 11 12 11 12 12 11 11 10 9
6 7 6 9 10 10 12 11 10 12 15 12 9 11 12 9 8 9 8 5 6 7 7 8 9 5 3 3 11 15 14 15 15 14 13 12 11 10 9 9 8 8 7 7 8 8 9 10 10 10 10 10 10 11 11 11 11 11 11 12 12 12 13 13 12 11 11 11 11 12 12 11 11 11 11 10 8 8 8 8 8 9 10 10 10 9
2 5 8 10 10 9 7 5 2 6 13 15 11 11 11 10 10 10 8 8 6 4 4 7 7 4 2 4 11 14 14 15 15 15 14 12 11 11 10 10 9 8 8 8 8 9 10 10 10 10 10 10 10 12 12 12 12 12 13 13 13 13 14 14 13 12 12 12 12 12 12 11 11 11 11 10 7 6 6 6 7 7 8 9 10 9
1 4 9 10 9 7 6 4 1 3 9 12 11 11 12 12 13 10 7 8 7 6 6 6 6 5 4 6 11 15 16 15 14 14 15 12 10 10 11 10 9 8 8 8 8 9 9 10 10 9 9 10 11 13 13 13 13 13 14 14 13 14 15 15 14 14 13 13 13 12 12 11 10 10 11 10 7 6 6 6 7 6 7 9 9 9
3 6 9 9 10 8 6 7 7 7 9 10 10 11 12 15 16 10 6 7 8 8 9 7 5 6 7 8 12 16 17 15 14 14 14 12 11 10 9 9 9 9 9 8 8 9 9 10 10 10 10 11 12 13 13 13 13 14 14 15 14 15 15 15 15 15 15 14 14 13 12 12 10 9 10 10 8 6 6 6 7 6 7 8 8 8
4 4 6 8 11 11 11 10 8 9 10 8 10 12 11 14 16 11 6 8 7 8 9 8 4 8 10 13 14 15 16 16 15 14 13 12 12 11 9 9 9 9 9 9 8 8 9 10 11 11 11 12 13 13 12 13 14 14 15 15 15 15 16 16 16 16 16 15 14 13 12 12 11 10 9 9 9 8 6 6 6 6 6 6 7 7
3 1 1 1 4 6 7 5 3 8 12 10 12 14 12 12 14 11 8 7 7 8 8 6 10 14 14 16 16 15 16 16 15 14 13 12 12 11 10 9 9 9 9 9 8 8 9 10 12 13 12 12 13 13 12 14 14 14 15 15 15 15 16 16 17 17 17 16 15 14 13 12 11 11 10 9 9 9 8 6 6 5 4 5 6 6
4 3 3 5 5 3 3 4 3 6 12 13 13 14 10 8 9 11 9 6 8 8 6 8 16 17 16 17 17 16 16 15 14 14 13 12 12 11 11 11 11 10 10 9 9 9 10 9 10 12 12 12 12 13 13 14 14 14 14 14 15 16 16 16 17 17 17 17 16 15 15 13 11 11 11 10 9 8 7 7 5 4 4 5 5 5
6 5 2 4 7 7 5 4 5 7 8 8 9 10 8 6 7 10 8 6 8 6 5 11 14 12 15 18 16 16 16 14 14 13 13 13 13 12 11 11 11 11 10 10 9 9 9 8 9 10 11 11 12 13 13 12 13 13 13 14 15 16 16 16 16 17 18 18 17 17 16 14 13 12 12 11 10 8 7 7 5 3 3 4 3 3
3 4 4 6 8 9 7 5 6 9 11 10 8 7 6 5 4 5 4 4 4 3 7 14 13 9 9 14 15 15 14 14 13 13 13 14 13 12 12 11 11 11 10 9 8 8 8 8 9 9 10 11 12 12 12 12 12 12 12 14 16 16 16 16 16 18 19 19 19 19 18 16 15 13 12 12 11 9 8 8 6 4 3 1 0 2
2 4 6 6 6 7 6 5 7 9 12 12 10 8 6 6 6 6 6 4 3 6 13 17 15 9 6 10 15 15 14 14 14 14 14 13 12 12 11 11 11 10 9 7 7 8 8 8 8 9 9 10 11 11 11 11 12 11 12 14 16 16 16 16 16 18 19 19 19 20 20 18 17 15 14 13 11 10 10 9 7 5 4 3 2 3
3 5 4 5 4 5 4 5 9 11 12 13 11 9 6 5 6 6 5 4 3 8 15 14 10 8 6 10 15 14 14 15 14 14 14 11 11 12 11 11 11 10 8 7 7 8 8 7 7 8 9 9 10 10 11 11 11 11 12 14 16 16 16 16 17 17 18 19 19 20 20 19 18 17 16 14 13 12 12 11 8 7 7 6 4 5
5 7 5 6 5 4 2 4 8 10 10 8 6 6 5 4 6 6 6 7 8 2 9 6 6 11 12 13 15 14 14 14 12 12 12 11 11 12 11 11 11 10 8 6 6 7 6 6 7 7 8 8 9 10 10 10 10 11 11 12 14 16 16 17 17 18 19 19 19 19 19 19 18 18 17 16 14 13 14 13 11 9 9 9 8 8
8 8 6 5 4 5 4 3 4 7 8 4 2 2 2 2 5 6 6 7 9 6 6 8 11 15 14 13 15 15 13 12 11 11 10 10 10 11 11 11 10 9 8 6 6 7 6 6 6 7 7 7 8 9 9 9 10 11 11 11 12 14 16 17 18 19 19 19 19 19 19 19 18 18 18 17 15 15 16 16 15 13 11 10 11 13
9 8 5 4 4 6 5 5 6 6 4 1 1 1 2 3 8 11 10 8 7 9 12 14 15 15 13 13 15 15 15 14 12 11 10 9 9 10 11 10 9 8 7 6 6 6 7 6 6 7 7 8 8 8 9 10 10 11 12 12 12 13 15 16 17 18 19 18 19 19 19 19 18 17 17 17 16 16 16 15 16 15 14 14 14 16
9 7 5 4 5 6 6 6 5 3 1 1 3 4 5 6 9 10 9 8 7 8 12 14 13 13 15 15 14 15 16 16 13 11 9 8 8 9 10 9 8 8 7 7 6 6 6 6 7 8 8 8 8 8 9 10 10 11 13 13 13 14 14 15 17 18 19 19 19 19 19 18 18 17 17 16 16 16 16 16 15 15 16 16 16 17
6 7 6 5 3 5 6 4 3 3 3 3 4 4 3 3 3 3 4 5 4 5 10 13 13 14 15 15 14 15 15 14 12 9 7 8 8 9 10 9 9 9 8 7 6 6 6 6 7 7 7 7 8 9 9 9 10 11 13 14 15 15 15 16 18 19 18 18 18 18 19 18 18 17 16 16 17 17 16 15 15 14 14 16 17 18
2 4 6 5 1 3 6 6 4 5 4 4 6 5 2 1 2 1 3 5 4 5 10 14 14 14 14 14 15 14 11 9 8 6 5 8 9 9 10 10 10 9 8 7 6 6 6 7 7 7 7 8 9 10 9 9 10 11 14 15 15 15 16 18 19 19 18 18 17 17 18 18 18 18 17 16 16 16 16 16 15 13 13 14 16 19
3 2 3 5 4 4 7 7 6 4 2 3 8 7 4 2 1 2 3 5 7 9 12 14 15 14 14 14 14 11 8 6 7 5 5 8 9 10 9 9 10 9 8 7 7 7 8 7 7 8 9 10 11 11 10 10 11 13 14 15 15 16 17 18 19 18 18 17 17 17 17 18 18 19 19 18 16 15 15 15 15 14 14 15 17 18
4 3 3 5 6 6 6 5 3 2 3 5 8 8 4 3 1 5 5 5 9 11 12 14 15 14 12 13 11 5 2 4 8 8 8 10 11 11 10 10 10 10 8 8 8 8 8 8 9 11 11 11 12 11 11 12 14 15 15 14 15 17 17 16 17 18 17 18 17 17 17 18 19 20 21 20 19 20 20 18 16 16 16 17 18 20
4 2 1 4 6 6 6 4 4 4 4 6 6 4 3 2 3 4 3 6 10 12 11 12 14 14 12 9 6 3 4 7 11 12 12 11 11 11 11 11 11 10 9 9 8 8 8 9 11 11 11 11 12 12 12 14 16 16 15 15 17 17 16 14 15 17 17 19 19 18 18 18 18 20 22 22 22 25 26 25 23 22 21 19 18 19
4 3 2 3 3 3 4 4 4 3 3 3 4 3 1 2 2 2 3 7 11 12 12 13 13 12 11 9 9 9 11 13 14 14 12 11 10 10 11 12 12 11 10 9 8 8 9 11 12 12 12 12 12 12 13 15 16 16 16 17 17 16 14 14 15 16 17 19 20 20 20 19 19 22 26 28 29 28 28 27 26 26 25 24 22 22
1 2 4 4 2 2 4 4 3 3 3 4 6 5 1 1 2 5 7 9 12 12 13 13 11 11 12 13 14 15 15 15 14 13 12 11 11 11 11 11 11 10 9 10 10 9 10 12 12 12 13 13 13 14 15 16 16 16 16 17 16 14 14 15 15 16 17 18 20 20 21 20 20 21 24 28 31 33 32 30 30 29 28 28 27 24
3 2 3 3 1 3 5 3 1 2 4 3 3 3 4 3 4 8 9 10 11 11 11 11 10 11 13 15 15 15 16 15 14 14 14 13 12 11 10 10 10 10 9 10 10 9 10 11 12 12 13 14 14 15 15 16 17 16 16 16 14 14 15 16 16 17 18 18 18 19 20 21 21 22 24 26 28 29 29 28 29 29 28 29 28 24
4 3 1 3 3 2 3 4 3 3 4 4 4 5 7 6 5 8 10 10 10 10 9 10 12 13 14 16 17 16 15 15 15 14 13 12 11 10 10 10 10 10 10 9 9 8 9 11 11 12 13 13 14 14 15 15 16 17 17 15 14 14 15 16 17 18 18 18 17 17 18 19 20 22 24 26 28 29 28 27 26 26 25 24 23 22
4 2 1 3 5 5 7 7 6 5 5 6 6 7 6 6 6 8 10 10 10 10 11 11 13 15 15 16 16 15 14 15 15 14 12 11 11 10 10 10 10 10 10 9 8 8 10 11 11 12 13 13 13 13 14 15 16 17 17 16 15 16 16 16 18 18 18 18 18 17 17 17 18 18 19 20 22 25 27 28 27 27 25 23 20 20
3 1 1 4 6 4 4 6 6 5 6 6 6 7 7 7 8 8 9 10 11 12 13 13 14 15 15 14 15 16 16 16 15 14 12 11 11 11 11 11 11 12 11 10 9 9 10 11 12 12 12 12 12 12 13 14 15 16 16 15 16 16 17 18 19 19 19 18 18 18 18 18 18 18 19 19 18 18 19 21 24 27 27 23 19 18
3 3 3 6 4 2 4 7 6 6 7 6 5 6 7 8 9 10 10 12 13 14 15 15 15 14 13 14 16 17 17 16 15 13 11 10 11 12 11 11 12 14 14 14 14 14 12 11 11 12 12 11 11 12 13 14 15 15 15 15 15 16 17 18 18 18 18 18 17 18 18 18 18 18 19 21 22 22 20 18 18 22 25 24 21 18
3 4 5 6 7 5 5 7 8 7 6 5 5 6 7 8 11 12 13 14 15 15 15 15 15 15 15 16 17 17 16 15 15 15 13 12 13 13 11 11 11 12 13 14 15 15 13 11 11 12 11 11 11 12 13 13 14 14 14 14 14 15 16 17 17 17 16 16 16 16 16 17 17 17 17 18 20 23 24 22 19 18 21 24 25 23
3 6 6 6 6 4 5 9 10 7 5 5 6 8 9 10 12 14 15 15 15 15 15 15 16 18 18 19 19 18 16 15 16 17 16 15 15 13 12 12 12 12 12 12 12 13 12 12 12 12 12 12 12 12 13 13 13 13 13 13 13 13 14 14 15 16 16 15 15 14 14 14 15 15 15 14 14 16 18 21 21 20 20 22 24 24
1 2 3 3 1 3 9 13 9 4 6 9 9 9 10 11 12 14 15 15 14 15 17 17 17 18 18 19 20 20 18 18 19 19 17 15 14 13 13 13 12 11 10 10 12 13 13 12 13 13 13 13 13 13 13 13 13 13 13 13 12 13 13 13 13 14 14 15 14 13 13 13 13 13 13 13 12 12 11 13 17 19 21 22 22 22
Wind_Direction
188 194 202 204 198 194 196 202 211 213 189 185 186 197 195 186 194 174 134 137 174 197 186 183 200 187 113 92 101 120 162 198 199 189 191 166 143 126 124 125 114 110 114 107 95 98 114 130 135 139 137 133 133 139 158 177 192 197 196 194 189 211 234 243 247 237 235 247 249 249 255 260 265 267 262 256 253 251 255 258 252 244 237 233 230 221
193 209 205 201 202 193 193 202 201 195 192 189 193 197 195 195 185 165 146 133 166 216 186 182 198 164 90 84 101 128 183 187 197 206 208 187 159 138 135 126 115 117 122 116 106 107 116 124 130 134 132 127 123 127 145 171 194 202 204 200 184 258 270 255 256 249 244 244 241 243 253 262 272 273 264 257 258 259 260 258 252 245 241 236 233 225
199 217 207 199 203 192 189 196 190 189 195 196 201 198 197 194 163 143 141 131 168 232 180 182 198 133 98 91 90 115 168 117 48 14 327 227 194 166 143 125 127 136 130 122 121 121 119 120 127 126 122 118 113 115 122 141 192 213 210 210 191 272 270 259 256 257 259 252 245 253 259 266 279 282 273 265 265 266 264 260 252 247 246 241 234 227
199 211 204 194 193 187 182 190 195 195 198 204 203 199 198 187 169 158 158 139 147 264 185 181 192 136 123 120 97 99 100 78 59 64 59 47 197 172 133 127 144 147 138 131 127 128 132 129 128 125 119 111 103 103 101 99 59 283 287 338 340 291 279 267 259 262 265 256 255 264 268 273 277 278 279 277 273 270 267 265 259 257 254 247 240 234
207 203 191 183 183 187 183 187 197 198 198 206 205 207 197 183 189 171 151 147 135 179 191 178 183 165 161 156 128 116 111 104 89 87 81 77 101 144 131 129 147 150 148 142 134 140 149 133 122 118 110 101 92 84 73 56 11 349 350 353 349 280 268 264 260 263 264 257 258 265 270 271 267 267 268 269 271 268 265 265 263 264 262 256 250 243
216 186 171 183 189 193 192 188 195 199 196 198 206 221 208 180 188 149 142 164 173 182 190 192 199 176 168 167 140 135 136 124 107 103 95 84 101 143 138 120 119 120 114 127 132 137 141 129 121 113 95 85 79 67 56 40 9 350 349 351 340 270 254 256 255 255 257 258 253 249 251 249 252 262 260 257 265 265 261 261 260 264 265 259 254 247
207 167 171 190 191 192 197 195 196 199 203 197 193 209 219 185 188 164 160 186 199 180 177 200 221 176 165 171 143 142 144 129 116 103 91 80 83 107 116 112 122 117 105 114 124 129 132 125 122 109 83 67 60 55 46 35 14 359 357 349 334 290 263 260 258 255 257 262 255 242 245 252 256 262 261 256 263 263 260 258 253 255 258 255 252 248
182 170 184 193 189 192 199 198 194 198 214 195 172 189 205 199 193 182 185 203 204 139 151 198 229 218 181 168 143 153 151 129 117 100 88 81 75 75 79 82 99 106 108 119 124 119 101 76 65 66 66 58 51 47 39 28 12 4 3 353 335 307 291 279 268 262 257 258 261 254 252 259 261 261 264 261 257 254 252 253 250 248 251 251 249 247
170 181 187 190 194 197 199 197 187 196 216 179 159 185 201 205 210 202 200 209 203 178 182 194 214 226 184 150 142 166 161 130 115 102 91 89 83 77 71 66 70 78 83 86 84 81 70 57 50 50 53 53 49 41 29 15 2 356 354 352 336 314 313 308 292 284 272 263 265 266 262 263 264 263 266 265 261 255 247 247 248 248 247 246 247 247
172 190 188 189 199 199 200 198 181 194 211 152 157 187 196 205 222 221 218 211 188 209 214 187 192 215 179 148 161 178 168 135 114 102 94 98 93 84 78 71 73 76 77 72 66 66 63 56 51 49 47 46 45 36 27 18 9 2 352 346 336 320 319 316 306 296 286 275 270 271 269 268 270 269 264 261 263 261 255 254 253 250 248 244 246 248
168 189 193 195 205 199 195 189 178 194 199 150 169 191 191 201 215 219 230 226 195 211 219 186 187 213 196 160 166 163 150 122 111 106 100 104 97 87 81 76 78 81 80 75 70 67 62 56 52 50 48 45 43 36 28 24 18 16 10 353 339 327 318 309 307 299 290 285 276 276 275 269 271 275 273 269 269 269 265 264 261 257 258 256 250 248
170 185 195 199 209 197 180 172 175 191 193 180 189 193 191 195 201 205 206 216 214 210 203 177 183 214 214 165 149 128 119 103 102 108 108 109 101 92 88 84 83 83 82 79 73 67 62 58 54 50 48 44 41 36 30 26 22 20 16 2 349 340 329 312 303 295 291 290 286 285 279 269 268 270 270 267 267 269 268 266 263 259 267 270 257 245
185 192 187 188 204 199 183 176 179 187 194 203 199 190 193 188 188 204 196 198 213 197 166 163 179 207 185 125 131 124 114 104 99 103 109 111 108 104 97 89 84 78 77 74 68 64 58 54 49 45 43 39 37 34 30 28 25 20 13 5 359 350 341 326 311 300 295 292 288 282 274 268 266 263 260 255 254 256 255 254 251 251 263 270 260 245
189 192 189 188 192 199 202 193 183 186 193 203 201 190 194 188 184 199 194 193 203 176 137 160 180 186 131 118 128 119 110 109 102 100 106 110 108 105 97 89 83 76 70 65 62 59 54 50 48 44 41 39 37 35 32 30 25 22 18 12 8 357 346 337 324 313 303 296 289 281 273 269 264 257 253 250 248 246 244 242 240 243 253 259 257 250
189 191 191 193 187 190 206 208 190 186 193 202 206 201 202 200 191 196 198 197 196 170 136 161 184 179 152 129 116 112 113 113 109 108 109 105 103 100 92 86 81 74 67 63 61 59 54 51 49 47 44 41 39 36 33 28 21 18 19 15 9 357 347 340 330 320 310 302 296 287 280 276 268 260 253 247 241 239 239 239 239 241 244 245 247 249
201 198 179 188 194 186 198 211 196 187 193 199 209 210 209 210 198 187 207 206 185 159 144 158 159 103 121 121 113 116 117 115 116 117 113 104 101 98 90 85 80 72 66 63 63 60 57 54 51 49 46 41 39 38 33 26 19 15 12 7 0 350 341 338 334 328 319 311 306 298 288 281 273 265 259 252 243 237 235 236 239 242 240 234 235 241
203 192 164 176 194 191 197 205 196 195 193 183 206 208 207 233 213 172 120 65 149 167 156 154 135 112 127 139 140 137 129 129 129 119 114 107 103 100 91 87 82 74 70 67 66 64 59 57 55 51 45 39 36 33 30 27 21 14 5 357 351 346 341 339 337 333 327 321 316 309 299 289 277 268 262 257 252 244 238 236 237 238 232 222 222 228
207 191 162 177 191 189 198 200 195 209 207 182 200 197 178 270 235 189 178 164 185 188 167 172 171 160 167 163 155 153 143 139 133 121 118 112 105 101 94 90 85 79 78 74 70 65 59 56 54 51 46 41 36 29 25 23 17 9 360 349 343 342 341 339 337 334 331 326 318 313 311 303 290 278 270 266 262 254 246 240 236 234 224 212 211 215
211 202 166 186 192 175 186 198 194 207 218 216 205 188 185 205 196 197 201 188 193 191 159 173 180 178 184 171 165 169 157 144 136 129 126 118 111 107 100 97 90 82 79 73 68 64 60 56 50 48 43 38 35 28 21 16 9 3 353 344 341 339 336 334 334 332 330 326 317 312 313 311 303 291 281 277 274 266 258 247 240 237 224 211 210 212
206 218 176 183 184 167 178 199 195 191 205 226 211 189 200 216 196 197 204 197 200 192 163 173 184 189 185 167 170 173 161 150 145 137 130 120 115 111 101 96 86 77 72 68 68 65 60 56 49 45 38 31 29 24 18 14 8 2 355 349 345 340 337 335 332 331 328 324 319 314 312 311 308 302 291 282 276 271 266 255 247 242 227 214 213 211
198 223 188 163 165 171 183 199 201 189 184 204 204 188 192 206 202 199 201 214 218 202 180 180 186 178 139 141 164 167 158 151 145 135 128 120 116 109 98 95 87 80 76 70 69 67 60 54 45 39 35 30 26 21 18 16 11 7 2 357 351 345 343 342 338 335 330 324 322 319 314 311 310 309 303 291 280 272 267 259 250 239 224 217 213 211
198 214 189 164 173 189 191 192 204 200 189 191 198 196 192 192 195 192 189 204 223 214 195 190 185 156 92 133 158 158 154 146 138 131 125 121 119 114 105 100 94 87 81 73 69 64 56 49 41 38 37 32 25 22 20 17 13 10 7 1 355 351 350 349 345 342 337 329 326 323 319 315 310 309 308 300 291 280 268 263 255 235 221 218 213 209
189 218 192 178 183 184 169 161 233 227 198 193 199 202 194 193 202 200 187 186 197 199 188 200 194 145 118 171 152 146 146 140 135 130 123 122 122 117 109 101 95 89 80 73 69 63 56 50 45 41 36 27 23 23 22 20 16 14 9 1 356 354 354 353 351 348 343 336 331 328 327 323 313 308 308 304 303 297 278 270 262 238 221 217 211 201
109 217 194 181 178 158 116 116 174 238 205 200 202 199 194 196 204 211 199 179 183 186 179 198 197 144 144 165 140 135 140 136 132 130 126 126 123 115 110 103 97 91 81 76 72 65 60 53 47 39 26 19 23 26 24 21 19 17 11 4 360 358 356 357 355 352 348 341 335 332 334 333 323 314 312 309 309 310 295 282 270 248 226 217 206 192
188 206 189 180 175 164 156 167 183 200 206 207 196 190 197 197 197 206 202 183 191 194 193 205 190 136 139 147 137 137 140 134 128 130 129 128 123 115 111 104 97 90 84 79 70 60 57 51 44 35 25 21 25 26 24 22 20 18 13 8 6 3 1 1 358 354 352 347 340 336 339 341 336 326 320 317 319 319 305 289 278 260 234 219 208 192
194 209 194 194 188 182 184 182 181 186 193 202 189 182 193 195 190 191 191 197 197 185 200 218 163 129 135 137 137 141 139 131 128 130 130 127 123 117 112 104 95 89 82 73 62 55 54 48 39 32 28 26 25 21 19 20 20 19 16 10 8 7 6 5 3 360 357 352 347 343 345 347 345 341 335 331 332 331 320 302 292 276 243 221 213 202
166 185 28 193 188 187 182 162 152 178 181 186 183 179 185 190 189 189 197 205 184 170 199 193 133 139 149 143 139 140 137 133 133 133 129 126 121 114 109 102 94 89 82 71 59 54 54 44 33 28 24 23 20 16 20 24 21 20 17 8 5 9 10 8 6 5 1 359 356 352 350 349 350 352 350 346 345 342 337 330 319 303 270 233 218 212
175 169 55 51 60 59 94 86 79 162 173 176 173 171 172 173 182 195 203 188 164 172 191 148 136 151 163 155 145 141 141 141 138 134 130 125 120 115 110 106 98 91 83 75 61 53 51 40 28 23 18 16 14 14 22 28 24 22 16 7 7 15 16 13 10 7 5 5 4 360 356 352 352 357 357 356 355 349 343 340 337 316 276 246 231 224
189 171 119 91 82 64 64 80 94 112 121 132 140 147 153 152 175 191 191 163 165 188 178 145 143 152 157 153 146 142 143 140 133 130 126 121 119 117 112 108 101 92 84 77 65 54 50 40 28 21 16 13 11 10 13 17 18 18 13 9 14 20 20 18 16 13 11 12 9 6 3 360 359 360 359 1 0 355 350 352 354 338 283 256 248 217
198 149 143 135 101 70 58 71 100 113 107 97 89 97 119 118 119 143 128 105 129 136 124 126 114 89 113 133 133 133 132 127 124 123 121 118 117 115 113 109 102 94 86 77 67 58 52 42 30 24 18 12 8 6 4 5 10 15 15 16 21 23 23 22 22 20 19 17 14 10 10 9 8 6 6 9 7 0 359 5 8 359 342 333 311 179
211 159 159 151 107 71 61 80 107 120 113 99 80 70 90 106 92 93 97 80 86 115 119 118 109 83 74 107 116 119 119 119 122 121 117 116 115 115 115 110 104 97 89 79 72 66 57 44 32 25 20 13 8 5 1 2 8 14 19 24 26 26 25 25 26 25 25 23 19 16 16 14 12 11 14 17 16 13 12 18 27 25 29 63 103 161
177 152 171 196 153 86 68 110 121 121 112 98 82 60 61 96 92 83 86 43 18 133 131 127 130 136 130 115 114 115 116 117 119 118 115 115 118 120 117 113 110 104 93 80 72 66 57 43 29 21 19 15 11 9 4 3 9 13 19 27 30 30 29 30 29 28 27 26 23 22 20 17 15 15 17 20 23 25 25 28 37 43 47 70 112 156
147 145 170 197 162 112 109 139 132 137 134 111 81 48 36 79 97 88 78 33 360 105 141 134 127 134 137 129 119 117 116 114 114 116 117 118 122 121 116 114 112 105 93 80 71 67 55 39 24 15 16 16 14 12 10 11 13 14 18 28 34 35 34 34 33 31 30 28 25 24 21 19 19 18 19 25 29 36 41 42 45 50 56 76 108 129
150 157 167 177 153 133 146 165 175 178 166 133 58 24 14 59 101 100 90 53 22 39 88 93 108 124 133 130 122 117 113 110 109 110 112 119 125 121 116 112 108 103 94 79 72 67 51 36 21 11 13 18 15 14 18 22 22 21 25 31 34 36 36 36 36 35 32 28 25 24 23 23 23 22 23 27 31 40 49 52 53 59 67 84 103 110
153 157 152 149 145 136 144 174 189 185 171 82 28 115 86 87 104 100 87 69 61 81 98 105 115 124 123 118 118 115 109 105 101 98 104 117 123 121 118 110 102 100 89 70 62 55 45 36 22 13 13 14 15 22 29 27 25 30 35 34 32 35 37 37 38 35 31 27 25 24 24 25 27 27 27 28 31 38 45 50 52 57 68 84 94 99
157 152 137 122 127 137 158 185 180 158 109 80 114 125 121 128 131 114 85 62 69 99 114 115 115 116 115 113 115 114 112 107 94 84 92 107 113 114 114 107 99 94 83 68 53 39 36 32 22 17 14 13 18 27 29 25 25 34 39 37 35 36 36 37 38 35 30 27 25 25 27 29 30 32 33 34 36 39 41 44 49 52 61 75 83 88
168 157 141 124 132 165 159 141 119 136 163 165 155 152 138 132 140 122 96 87 85 108 125 126 120 119 120 119 120 122 120 107 88 76 84 101 106 104 100 98 97 91 83 73 57 41 34 29 25 21 17 21 27 24 18 19 28 39 43 41 40 38 36 37 37 35 32 28 26 28 30 32 34 36 38 39 41 42 41 41 44 47 51 61 67 70
178 172 157 139 160 202 155 132 144 169 176 170 151 137 104 47 358 21 115 128 131 136 138 135 131 130 131 129 132 142 140 113 92 91 106 112 112 106 99 97 96 91 84 78 69 60 49 36 29 26 27 36 37 25 17 21 33 45 47 45 43 41 39 38 37 36 35 32 30 32 36 38 39 39 40 42 45 47 47 46 47 47 47 54 59 63
97 131 163 147 150 184 175 169 174 166 119 130 141 137 131 127 144 217 192 153 144 148 148 143 139 140 141 139 144 160 167 140 125 133 138 128 120 115 111 104 98 92 85 79 74 67 58 48 45 45 44 46 42 29 25 34 44 50 49 45 46 44 41 39 39 38 39 39 37 38 41 44 47 47 48 49 50 50 49 49 51 52 53 57 60 63
100 130 168 164 161 179 191 181 153 95 68 117 137 139 132 108 166 217 206 155 145 151 151 147 144 143 145 146 147 157 174 149 145 145 144 136 125 120 117 110 106 102 94 85 77 72 68 64 59 52 45 42 39 33 37 50 55 52 48 46 47 44 39 38 42 43 44 45 46 45 46 50 54 56 57 56 59 63 62 58 56 57 60 60 60 64
104 113 163 178 164 173 191 170 115 82 99 129 134 124 122 148 206 211 173 128 140 146 144 144 143 140 141 143 136 94 61 100 125 134 139 136 126 119 116 111 108 105 99 93 85 80 77 69 61 55 48 43 41 40 46 57 60 55 52 51 48 43 37 36 44 49 50 51 51 50 50 51 55 61 65 66 68 70 70 68 67 67 66 64 60 61
122 121 152 168 154 162 185 164 128 96 92 133 141 129 165 211 183 120 100 123 135 135 133 135 134 130 126 113 105 106 101 104 119 130 134 130 121 117 116 113 110 107 102 97 88 82 81 75 66 61 55 50 48 50 52 57 60 59 57 54 49 43 39 39 45 50 53 55 55 55 55 56 59 65 69 72 73 72 71 72 73 72 71 69 66 65
61 181 163 136 88 156 171 171 167 137 122 152 161 152 162 329 91 117 124 127 128 127 129 127 121 117 115 109 109 113 112 114 125 130 125 120 116 115 112 109 106 102 99 96 86 78 81 82 75 69 65 59 55 54 53 55 58 58 56 53 49 47 47 48 50 51 53 55 57 58 60 62 62 64 66 70 72 73 71 71 73 73 74 73 71 68
7 306 164 118 1 228 182 161 130 104 111 130 153 125 87 64 107 132 131 124 125 128 126 119 114 116 119 118 117 117 119 125 131 128 123 121 117 110 103 99 96 90 88 88 81 76 84 89 85 78 72 65 60 56 55 56 57 55 52 51 50 52 54 55 55 56 55 55 57 60 63 63 61 63 67 70 72 72 70 68 68 68 67 68 68 66
23 354 38 75 50 37 73 87 100 100 90 80 63 74 91 101 117 127 125 125 128 128 123 119 121 124 124 123 123 124 127 129 128 123 119 115 109 101 95 92 90 87 85 82 77 80 89 90 88 85 78 69 64 61 58 58 58 56 53 50 50 54 57 58 58 59 58 56 55 58 63 63 61 62 64 66 68 68 67 65 63 60 57 55 56 57
62 17 3 89 110 99 72 80 103 102 84 79 72 75 93 112 119 119 120 122 123 125 125 124 125 128 131 129 127 127 129 128 124 118 112 106 101 96 90 84 79 77 77 73 71 85 96 94 90 88 82 73 66 63 61 59 60 61 59 56 56 57 60 61 61 61 60 58 57 55 57 59 58 56 54 56 59 62 62 61 59 56 53 49 44 45
116 260 67 116 147 156 100 94 98 90 89 92 89 92 101 109 113 114 116 119 120 121 122 122 125 130 132 130 128 128 128 128 124 117 110 107 103 95 87 80 74 74 73 67 68 83 93 93 91 88 83 76 69 66 66 64 64 66 65 63 63 62 63 64 63 62 61 60 59 57 55 55 55 53 51 49 49 51 52 52 53 52 49 44 38 37
147 188 142 122 125 99 97 113 107 84 82 85 90 106 116 114 113 112 114 119 119 116 115 120 126 129 129 128 128 127 127 126 122 117 114 111 106 98 90 84 82 82 80 77 77 79 78 76 80 81 80 80 76 73 72 68 66 67 66 66 68 66 65 65 64 64 64 62 61 61 59 58 58 57 56 53 50 49 47 45 47 49 47 44 38 35
135 164 144 119 110 96 105 133 133 109 93 85 87 105 118 120 119 118 119 120 117 113 114 119 124 126 128 129 130 129 128 126 123 122 121 119 117 113 105 100 97 92 87 82 80 78 72 69 74 76 76 80 82 81 78 72 68 66 65 66 69 69 69 69 66 64 64 62 62 64 63 62 62 61 61 60 57 54 52 49 49 52 50 47 45 42
157 146 131 126 135 145 155 162 162 146 127 123 115 114 121 125 124 124 125 123 117 116 119 122 122 123 124 127 130 130 128 127 127 127 126 125 125 121 114 110 106 99 95 91 84 80 77 77 79 80 80 84 88 86 81 74 69 65 64 64 67 68 70 72 69 66 64 61 61 63 64 64 64 62 61 60 60 60 57 53 52 53 51 48 45 44
357 100 131 147 136 121 141 155 164 143 120 127 127 122 125 129 128 127 127 122 117 121 126 126 126 126 123 122 124 125 124 125 127 126 123 121 121 119 114 114 113 110 108 100 88 86 88 87 87 88 89 92 93 88 81 75 70 66 64 63 64 66 66 67 67 66 65 62 60 59 61 62 61 58 56 55 54 56 60 59 56 53 51 50 48 45
Height
771 778 779 774 770 769 768 764 761 759 760 764 767 768 767 769 769 762 765 765 761 768 770 768 769 767 771 776 777 777 777 778 779 780 781 781 786 789 790 792 795 800 802 802 804 805 807 808 809 810 811 812 813 813 814 814 815 815 816 818 819 819 820 820 820 820 820 820 820 821 822 822 821 821 822 822 822 822 823 823 823 824 824 824 824 824
771 777 773 767 763 762 764 762 762 765 764 764 766 767 765 764 764 762 766 767 763 767 768 766 768 770 776 779 778 778 779 780 780 781 783 782 784 787 789 792 796 800 801 803 805 806 808 808 809 810 810 812 812 813 814 814 815 816 817 818 819 820 820 820 820 820 819 819 820 820 821 821 821 821 821 822 822 822 823 823 823 824 824 824 823 823
777 774 765 761 759 759 764 764 766 770 768 767 765 766 768 761 761 767 768 767 766 768 768 768 770 776 780 781 781 781 780 782 783 783 785 784 785 786 789 793 796 799 801 804 805 806 808 809 809 810 811 812 812 813 814 814 815 816 817 818 819 820 820 820 820 819 819 819 820 820 821 821 821 821 821 822 822 823 823 823 823 823 823 823 822 822
776 768 758 757 758 761 767 768 769 771 769 768 764 766 768 759 764 775 773 770 770 769 769 769 772 778 782 783 785 785 783 784 785 785 785 786 787 786 788 792 795 798 801 804 806 806 807 809 809 810 811 812 813 813 814 814 815 816 817 818 819 820 819 819 819 819 819 819 820 820 820 821 821 821 821 821 822 822 822 822 822 823 822 822 822 821
766 758 752 756 761 764 769 771 770 772 772 768 763 763 763 759 762 767 769 771 772 773 770 769 778 783 780 783 786 786 786 786 785 786 788 788 788 788 789 793 795 797 799 803 806 807 807 808 810 811 812 812 813 814 814 815 816 816 817 818 818 819 819 818 818 819 819 819 819 819 820 820 820 820 820 820 821 821 821 821 821 821 821 821 821 821
758 751 753 761 763 763 768 771 769 769 771 770 766 760 757 758 761 763 767 772 778 783 773 770 788 791 780 782 787 786 788 790 789 789 791 791 789 788 790 795 797 798 800 802 805 807 807 808 810 811 812 813 813 814 815 815 816 816 817 817 818 818 818 817 817 818 818 818 818 819 819 819 818 818 818 818 819 819 819 819 819 819 819 819 820 819
753 751 756 762 763 763 766 768 765 763 767 771 766 760 759 759 762 765 768 771 778 781 770 767 782 791 786 785 786 787 789 792 792 792 792 792 791 790 792 796 798 800 803 805 806 807 808 809 810 811 812 813 814 815 815 815 816 816 817 817 817 817 817 817 817 817 817 817 817 818 818 818 817 816 816 816 817 817 817 817 817 817 817 817 818 817
750 756 759 759 761 764 765 765 761 758 764 765 758 759 764 764 765 766 767 769 768 769 773 769 770 782 789 787 785 786 789 792 793 795 795 795 797 798 798 800 800 802 805 807 808 808 809 810 811 812 813 814 815 815 816 816 816 816 817 817 817 816 816 816 816 816 816 817 817 817 817 816 816 815 814 814 815 815 815 815 815 815 815 815 815 816
750 759 759 759 762 762 760 757 755 758 762 758 753 757 762 764 766 763 764 767 764 772 783 775 769 780 786 785 786 785 786 792 795 796 798 799 803 806 806 806 805 805 807 808 809 810 811 813 813 814 815 815 816 816 816 816 816 816 816 816 816 815 815 815 815 815 815 816 816 816 816 815 814 813 813 813 813 813 813 812 813 812 812 812 812 813
750 753 751 755 759 757 753 750 752 758 759 753 755 759 760 764 765 764 766 765 768 783 785 772 771 780 784 785 785 785 786 791 794 796 799 801 805 809 810 810 809 809 810 810 812 812 813 815 815 815 815 815 816 816 816 816 815 816 815 816 816 815 815 814 814 814 814 815 815 815 814 814 813 812 811 811 811 811 811 811 810 810 810 810 809 810
746 746 746 749 751 748 748 748 751 755 754 754 759 762 765 767 766 768 768 763 777 793 779 764 764 772 784 786 779 783 788 788 790 796 800 802 805 809 811 812 812 811 812 813 814 814 815 816 816 816 816 816 816 816 815 815 815 815 815 815 815 815 815 814 814 814 813 813 813 813 813 812 811 811 810 809 808 808 808 808 808 808 808 807 807 806
748 751 749 746 744 744 748 754 755 753 753 757 760 763 770 774 772 776 776 774 790 795 771 758 761 768 783 787 782 788 790 787 790 797 803 806 807 809 811 812 813 813 814 814 815 816 815 816 816 816 817 816 816 816 815 815 815 815 815 815 815 815 814 814 813 813 813 812 813 812 812 811 810 810 809 808 807 806 805 805 805 806 806 805 804 803
753 751 748 747 746 744 751 759 761 759 758 760 759 763 776 783 786 790 786 786 791 783 765 759 763 773 783 785 787 791 791 791 794 798 804 807 808 810 810 812 814 814 815 815 816 817 817 818 818 818 818 818 818 817 816 816 816 815 815 815 814 814 814 814 813 812 812 811 811 811 810 809 808 808 807 806 805 804 803 802 801 802 802 802 801 800
757 750 746 750 750 746 748 756 763 765 762 761 759 763 772 780 794 801 789 786 786 777 768 762 765 782 792 789 787 793 796 798 799 802 805 807 809 811 812 813 816 816 817 818 818 820 820 820 820 820 820 820 820 819 818 818 817 816 816 815 814 814 814 813 812 811 811 810 809 809 807 807 806 805 804 803 802 802 800 799 798 798 799 799 799 798
760 758 749 749 749 746 746 747 752 757 759 759 751 752 762 764 778 791 782 778 780 775 775 773 773 785 795 794 791 795 799 800 803 806 807 809 811 812 814 816 818 819 820 821 821 822 823 823 823 822 822 822 822 821 820 819 818 817 816 816 815 815 814 813 812 811 810 809 808 807 806 805 804 803 801 800 799 798 797 796 795 795 795 796 796 796
753 753 740 740 741 740 747 743 739 750 760 759 748 751 759 749 752 772 775 770 770 774 781 784 785 788 793 796 796 799 804 804 806 808 808 813 814 814 817 818 820 822 823 824 824 825 825 825 825 825 824 824 823 822 821 820 819 818 817 817 816 815 814 813 812 810 809 808 807 806 805 803 802 801 799 798 796 795 794 793 793 793 793 793 793 794
749 745 732 738 742 737 743 741 737 747 756 758 757 757 752 737 740 766 780 775 771 780 789 789 793 801 802 802 800 802 808 808 809 810 811 816 816 816 820 821 823 825 825 826 826 826 827 826 826 826 826 826 824 823 822 821 820 820 818 818 817 816 815 813 811 810 808 807 806 805 804 802 800 799 797 796 794 793 792 791 791 791 790 790 790 790
742 742 734 739 746 739 736 739 741 741 743 754 762 753 745 743 744 754 773 782 778 784 793 787 788 797 801 803 802 802 807 809 810 812 814 817 818 819 822 824 825 826 827 828 828 828 828 828 827 827 827 826 826 825 823 822 822 821 820 819 817 816 814 813 811 809 808 807 806 804 803 801 799 797 796 794 793 793 791 790 790 789 788 787 786 787
735 743 741 737 741 741 736 741 749 744 739 747 749 740 745 760 763 757 766 780 780 784 793 789 782 783 785 792 798 799 803 807 810 813 815 816 818 821 824 826 826 827 828 828 829 829 829 829 829 828 828 827 826 825 824 823 822 821 820 819 817 816 814 813 811 809 808 806 805 804 802 800 798 796 795 793 792 791 790 789 789 789 788 786 785 786
731 742 747 737 734 739 741 745 752 751 746 744 741 739 744 752 756 756 756 762 768 777 790 794 789 779 770 775 787 791 795 802 808 812 815 816 818 821 825 826 826 827 828 829 831 831 830 831 830 829 829 828 827 826 825 824 823 822 821 819 818 816 814 813 811 809 807 805 804 803 801 799 797 795 794 792 791 790 789 788 789 789 788 786 786 786
733 741 747 742 737 742 747 744 741 744 748 749 746 746 748 746 744 747 751 750 753 765 780 792 792 780 766 767 777 783 789 797 805 811 815 817 821 824 826 827 828 830 831 831 832 831 831 831 830 830 830 828 828 827 826 825 824 822 821 819 818 816 814 813 810 808 806 804 803 802 800 798 796 794 793 791 790 789 788 788 788 788 787 786 786 786
734 738 742 746 744 743 740 733 729 732 735 741 744 742 743 746 745 755 764 755 745 752 764 774 783 785 777 770 773 780 788 796 804 811 816 820 825 828 829 830 831 832 833 832 831 831 831 831 831 830 830 830 829 828 826 825 824 823 821 820 819 817 815 813 810 808 806 804 802 801 799 798 796 794 793 791 789 788 787 788 788 788 787 786 787 787
730 731 736 741 739 736 733 730 731 731 726 730 736 733 734 740 742 754 765 759 751 754 756 757 772 789 786 771 771 782 790 798 806 810 817 823 826 828 830 831 832 832 833 832 832 832 833 832 832 832 831 831 830 828 827 826 824 823 822 820 819 817 814 812 810 808 806 804 802 801 799 798 796 795 793 790 789 788 787 788 788 788 787 787 787 788
732 731 734 738 734 733 734 734 734 732 728 731 732 727 730 735 735 737 743 746 755 761 759 761 775 791 788 773 774 786 793 800 807 811 818 825 826 828 830 830 831 832 833 833 833 834 834 834 834 833 833 832 830 829 827 826 825 824 822 821 819 817 814 812 810 808 806 804 803 801 799 798 796 795 793 790 789 788 788 788 788 788 787 787 788 788
733 732 733 742 748 750 750 747 744 740 735 733 730 727 727 727 730 734 735 741 753 757 754 760 775 787 787 779 781 790 796 802 809 814 819 824 827 830 830 830 831 833 834 835 835 835 834 834 835 834 834 832 830 829 828 827 826 824 823 822 819 817 814 812 810 808 806 805 803 801 799 798 797 795 793 791 789 788 788 788 788 788 788 788 789 789
732 733 733 742 752 756 756 751 745 740 736 732 730 731 730 726 729 737 742 748 757 758 752 756 772 787 790 789 792 796 799 807 814 818 820 822 826 829 830 832 832 834 835 836 836 836 835 835 835 834 834 833 831 831 829 828 827 825 824 822 820 818 815 813 811 809 807 806 804 802 800 799 797 795 794 792 790 789 789 789 789 789 788 788 789 790
732 737 738 742 744 744 743 741 732 729 734 737 737 736 734 730 729 734 744 749 752 757 756 753 767 787 793 795 801 803 804 812 817 819 821 822 825 828 830 833 834 835 836 837 837 836 836 836 836 835 835 834 833 832 831 829 827 826 825 823 820 818 816 814 813 810 808 806 805 803 801 799 798 796 794 792 791 790 789 789 789 789 789 789 789 790
732 740 744 746 747 744 742 742 735 729 732 736 737 738 738 737 735 737 745 744 742 754 762 757 763 780 786 792 802 807 808 812 816 819 821 823 826 829 831 833 835 836 837 837 838 838 838 838 838 837 837 835 834 833 831 830 828 827 826 824 822 820 817 816 814 812 810 808 806 804 802 800 799 796 795 793 792 791 789 788 788 788 788 788 789 790
728 740 747 748 750 749 746 743 738 736 739 739 740 743 743 743 742 742 744 740 739 750 757 756 762 769 775 787 801 805 806 810 815 819 821 823 825 827 830 832 834 836 837 838 840 840 840 840 839 839 838 837 835 834 832 831 830 828 827 825 823 821 819 817 815 813 811 809 807 806 804 802 800 797 796 794 793 791 790 789 789 788 789 789 789 791
727 742 748 744 749 754 751 747 742 741 746 749 750 750 749 748 748 748 750 747 745 746 748 756 770 778 782 792 801 804 806 812 817 820 821 823 826 828 831 833 834 836 839 840 841 841 841 841 841 840 839 838 837 835 834 832 831 830 829 827 825 823 820 819 817 815 813 811 809 807 805 803 801 799 797 796 794 793 791 791 790 790 791 791 791 791
732 745 747 740 746 756 755 751 748 745 748 755 759 757 754 753 753 754 757 756 751 749 755 766 782 797 803 804 806 810 813 816 819 821 823 826 828 830 833 834 836 839 841 841 841 841 842 842 842 842 841 840 839 837 835 834 832 831 830 828 827 824 822 821 819 817 815 813 811 809 807 805 803 801 799 797 796 795 793 793 792 792 793 793 793 792
729 744 750 741 743 756 760 754 751 749 750 758 767 769 764 761 762 763 764 765 759 756 763 770 778 797 811 812 812 816 818 820 823 823 826 829 830 832 834 835 838 840 842 842 842 842 843 844 843 843 842 841 840 839 837 835 834 832 831 830 828 826 825 823 820 819 817 815 813 811 809 807 805 803 801 799 798 797 796 795 794 794 794 795 795 794
727 741 747 737 741 759 762 755 753 750 749 759 773 781 777 770 769 770 771 773 768 761 764 769 775 793 809 811 814 820 822 825 827 827 828 831 831 832 834 836 839 841 843 844 844 844 845 845 845 844 844 843 841 840 838 837 835 834 832 831 829 828 826 824 822 821 818 816 815 812 811 809 807 805 804 802 801 799 798 797 796 796 796 796 796 795
729 734 735 731 742 761 764 759 757 751 754 771 784 786 783 774 771 775 780 783 779 773 775 781 788 801 809 810 816 823 827 830 831 831 831 833 833 834 835 838 841 842 844 845 845 846 846 846 846 846 845 844 843 841 840 838 837 835 834 832 831 829 828 826 824 822 820 818 816 815 813 811 810 808 807 805 804 802 801 801 800 799 798 798 798 798
730 731 731 731 739 756 762 760 759 759 769 785 788 783 782 779 778 783 789 788 784 784 788 794 800 807 810 814 820 825 830 833 835 835 836 836 836 836 837 841 843 844 846 847 847 847 847 847 848 847 846 845 844 842 841 840 838 837 835 834 832 831 829 827 826 824 822 820 819 817 816 814 812 811 810 809 807 806 805 805 804 803 802 802 802 802
727 729 732 733 739 753 758 755 760 773 785 790 787 782 782 782 781 784 791 795 791 789 793 802 809 813 817 822 826 828 831 835 838 840 841 840 839 838 839 843 845 846 847 848 849 849 849 849 848 848 847 846 845 844 842 841 840 838 836 835 833 832 831 829 827 826 825 823 821 820 818 817 816 814 813 813 811 810 810 809 808 807 807 806 805 805
723 725 730 738 745 747 751 760 774 785 786 784 785 783 780 781 779 776 785 800 801 794 798 809 816 820 823 826 828 831 831 833 840 847 847 844 843 843 843 845 847 848 849 849 850 850 850 850 850 849 849 847 846 845 844 843 842 840 838 837 835 833 832 830 829 829 827 826 824 823 822 820 819 817 817 816 815 815 814 813 812 811 811 810 809 808
722 723 726 739 748 743 745 763 776 775 772 773 779 782 780 781 781 775 780 797 803 799 801 810 817 823 826 827 829 831 826 827 840 850 850 847 846 845 847 848 848 850 850 850 851 851 851 851 850 850 850 848 847 846 845 844 843 841 840 838 837 835 833 832 832 831 830 829 828 826 825 824 822 821 820 819 818 818 818 817 817 816 815 814 813 812
726 723 722 734 747 745 744 753 758 762 769 774 778 784 783 781 782 779 778 789 800 801 802 809 817 823 825 826 828 827 819 821 838 851 850 848 847 847 848 850 850 851 852 851 852 852 852 852 851 851 850 849 848 847 846 845 844 842 842 840 839 838 836 835 835 834 832 832 831 829 828 827 826 824 823 822 821 821 821 821 820 820 819 818 817 815
732 729 728 735 743 745 744 747 752 766 779 780 779 782 781 782 785 781 775 784 797 800 801 807 815 820 824 824 826 826 821 822 836 847 848 847 849 849 849 850 851 852 852 853 853 853 853 853 852 852 851 850 850 849 847 846 845 844 844 843 841 840 838 839 838 836 835 835 833 832 831 830 829 828 826 826 825 824 824 824 824 823 822 821 821 819
741 738 736 737 741 744 745 747 756 772 783 783 782 783 783 784 782 778 778 788 796 799 801 808 813 818 823 824 825 830 831 830 835 844 847 848 849 850 851 851 852 853 853 854 854 854 854 854 853 853 853 852 851 850 849 848 846 846 846 845 843 842 842 842 841 839 838 837 836 835 834 833 832 830 829 829 828 827 826 826 827 826 826 825 825 823
747 747 743 741 744 745 746 748 757 773 786 788 785 786 786 782 780 783 791 795 796 800 805 810 815 819 824 827 830 834 837 837 841 845 847 849 850 851 852 852 852 854 855 855 855 856 855 855 855 855 854 854 853 852 851 849 848 848 847 846 845 846 845 844 843 842 841 840 839 838 837 837 835 834 833 832 831 830 830 830 830 830 829 829 828 828
754 751 746 751 758 753 749 754 759 771 786 791 786 784 786 785 787 794 799 798 799 804 809 813 820 823 826 831 834 836 838 842 846 847 848 850 851 852 853 853 853 855 856 856 857 857 856 857 857 856 856 856 855 854 852 851 850 850 849 849 848 849 848 847 845 844 843 843 842 841 841 841 839 838 837 836 835 834 834 834 834 833 833 832 831 831
763 756 746 756 767 756 749 762 776 784 791 792 787 787 790 792 793 794 796 799 803 808 811 817 824 827 828 832 835 838 841 845 847 848 848 850 852 853 854 855 855 856 857 857 858 858 858 858 858 858 858 858 857 856 855 854 853 852 852 851 852 851 850 849 848 847 846 846 846 845 845 844 843 842 841 840 839 838 838 838 838 837 837 836 835 835
770 769 759 766 780 775 768 780 796 801 799 795 793 794 797 797 795 793 795 801 805 808 813 819 825 828 830 832 835 838 842 845 847 849 849 851 854 855 856 857 857 857 859 859 859 859 859 859 859 859 859 859 859 858 857 857 856 855 854 854 854 853 853 852 851 850 849 849 849 849 848 847 847 846 845 844 843 842 841 841 841 841 840 840 839 839
775 774 767 773 788 790 788 795 801 801 800 799 799 800 800 798 796 795 797 802 806 810 814 819 824 829 831 832 835 839 843 846 847 849 851 853 856 857 857 859 859 859 860 860 861 861 860 860 861 861 860 861 861 860 860 859 858 858 858 857 857 856 855 854 853 853 853 852 852 852 851 850 850 849 849 848 847 846 845 845 845 844 844 843 843 842
776 771 769 776 782 780 785 799 804 802 802 802 802 804 804 801 799 799 801 804 808 811 816 820 825 829 832 833 836 839 843 846 848 850 853 855 857 859 860 860 861 861 862 862 863 862 862 861 862 862 862 862 862 862 862 861 860 860 860 860 859 858 858 857 856 856 856 856 855 855 854 853 853 853 852 852 851 850 850 849 849 848 847 846 846 845
772 771 770 777 784 785 791 803 807 805 806 805 803 806 807 804 803 804 805 807 810 814 819 823 826 829 832 835 837 839 843 847 849 852 855 857 859 861 861 862 863 863 864 864 864 864 863 863 863 863 864 864 864 864 864 863 863 862 862 861 861 861 860 859 859 858 858 858 858 858 858 857 857 856 856 855 855 854 853 853 852 852 851 851 850 849
770 770 770 778 793 800 802 805 806 805 809 811 809 809 809 807 808 808 809 812 815 818 822 825 827 829 832 835 838 840 843 847 851 853 855 858 860 862 863 864 865 865 866 866 866 865 865 865 865 866 865 865 865 865 865 865 865 864 864 863 863 862 862 862 861 860 860 861 860 860 860 860 860 859 859 859 858 857 857 857 856 856 855 855 854 853
769 767 770 779 789 791 792 798 798 794 800 810 812 812 811 811 811 812 813 816 819 821 824 826 828 832 835 838 840 842 844 849 853 855 857 859 861 863 864 865 866 866 867 868 868 867 867 867 867 867 867 867 867 867 867 867 867 866 866 865 865 864 864 863 863 863 863 863 863 863 862 862 862 862 861 861 861 860 860 860 859 859 858 857 857 856
772 771 772 773 773 773 780 791 792 788 796 809 813 812 813 813 813 814 816 818 821 824 825 828 831 834 838 842 845 846 848 851 854 856 858 860 862 864 865 866 867 868 868 868 868 868 868 868 868 868 868 868 869 869 869 869 868 868 868 867 866 866 865 865 865 865 865 865 865 865 864 864 864 863 863 863 862 862 862 862 862 861 860 860 859 858